Theta_e
317 317 316 316 315 316 317 317 318 318 318 318 319 319 319 319 319 319 319 319 320 320 320 320 321 322 312 302 304 314 341 339 314 309 305 303 300 299 299 298 298 296 300 303 307 310 306
317 317 317 317 316 316 318 318 318 318 318 318 318 318 318 319 319 318 318 318 318 318 318 320 321 321 306 296 307 318 318 311 309 305 305 304 302 304 300 299 297 301 300 299 302 304 305
318 318 316 316 316 316 317 317 317 317 317 317 317 317 318 318 318 318 318 317 316 317 319 321 322 318 305 301 312 316 314 310 310 309 305 306 306 304 302 299 300 299 300 300 300 304 304
318 318 317 316 316 316 316 316 316 316 317 317 317 317 317 317 318 318 318 318 317 319 320 322 323 312 300 309 311 311 312 310 311 310 308 308 307 304 300 300 301 297 296 292 298 303 306
317 317 317 316 315 315 315 315 315 316 316 316 316 316 316 317 317 318 317 317 318 320 321 323 309 303 302 316 311 312 311 310 310 309 309 313 305 300 301 296 295 296 292 293 297 300 305
317 316 316 315 315 314 315 315 315 315 315 315 316 315 315 316 317 316 315 316 316 316 318 319 315 301 306 307 312 311 309 311 308 306 305 304 299 297 295 294 291 292 293 295 294 299 299
316 315 314 314 314 314 314 314 314 315 315 314 315 315 315 315 316 315 306 300 299 299 303 300 301 303 305 311 311 308 310 309 307 303 297 300 297 294 295 296 297 298 296 296 298 300 297
315 314 313 313 313 313 313 314 314 314 314 314 314 314 315 315 315 314 302 298 303 306 299 308 303 306 309 309 304 308 309 304 302 297 298 297 293 299 300 301 301 298 295 294 298 301 299
315 314 313 312 312 313 313 313 313 313 314 313 313 313 314 315 314 303 298 302 306 305 298 305 307 306 305 307 304 305 307 303 300 297 296 295 298 304 302 300 300 296 295 295 296 298 298
314 313 312 312 312 312 312 312 313 313 313 313 312 313 313 313 304 301 305 309 307 305 293 298 303 306 307 306 303 309 308 305 302 298 299 297 301 302 300 299 298 294 300 300 298 295 290
314 313 312 312 312 312 312 311 312 312 312 312 312 313 312 312 303 301 309 305 304 304 284 299 303 308 304 304 304 308 311 308 300 301 301 298 300 300 299 299 301 299 300 298 297 292 290
313 312 312 312 311 311 311 311 311 311 311 311 312 312 311 308 303 302 307 304 306 294 287 299 303 301 299 301 303 307 307 309 307 303 303 300 303 302 301 303 303 302 298 295 292 290 286
312 311 311 311 311 311 310 310 310 311 310 311 311 311 309 309 304 304 305 304 293 288 299 299 297 298 298 299 301 305 303 299 298 296 295 300 300 303 305 300 302 299 292 286 285 285 286
311 311 311 311 311 311 310 310 310 310 309 310 309 309 309 311 303 307 304 299 286 295 298 305 304 298 297 299 299 303 301 298 301 301 297 294 294 301 305 300 298 295 293 287 283 283 286
310 310 310 310 310 310 310 309 309 309 308 308 307 305 304 309 310 306 302 291 290 296 304 304 303 295 294 301 298 300 298 299 301 302 298 296 296 305 305 303 302 296 293 294 288 287 286
309 309 310 310 310 310 310 310 310 309 308 308 303 305 305 309 308 305 298 293 297 305 306 304 297 301 295 300 296 297 297 304 304 305 304 301 295 302 306 305 304 299 299 292 290 285 283
308 308 309 309 310 310 309 309 309 309 308 306 304 301 308 308 307 300 292 294 300 307 306 301 300 300 302 300 300 295 298 305 309 304 304 300 297 298 301 298 297 298 294 292 291 289 285
308 308 308 308 309 309 309 309 309 307 306 301 297 297 307 307 298 294 295 299 303 303 307 306 303 303 301 302 303 302 302 304 313 307 301 301 295 292 295 301 302 298 294 292 289 287 288
307 307 307 308 308 309 309 308 308 307 306 295 293 297 309 306 293 292 296 302 305 304 305 306 303 305 305 301 298 305 305 312 311 309 304 301 294 289 293 296 301 298 297 294 291 289 288
306 306 307 307 307 308 309 308 308 307 306 299 296 293 302 303 299 297 296 298 299 306 307 307 303 305 302 301 302 302 304 309 310 310 315 307 295 293 290 292 295 294 298 296 293 287 288
305 305 306 306 307 307 308 308 308 306 306 294 295 295 300 296 300 299 298 300 300 300 304 305 300 302 299 297 299 301 305 305 307 311 306 302 297 297 296 300 299 297 297 297 294 294 291
304 304 305 305 306 306 307 308 308 306 306 297 292 299 303 297 299 299 299 300 300 302 302 302 301 304 301 298 300 300 303 300 300 304 301 299 296 295 295 300 300 297 300 299 298 297 295
303 303 304 304 305 306 306 307 308 307 303 300 302 303 302 298 297 296 297 297 299 301 303 307 306 304 302 305 307 304 305 304 303 301 300 298 297 292 291 299 297 292 298 299 299 300 299
303 302 302 303 304 304 306 306 307 307 301 295 299 302 300 294 297 297 301 302 301 301 299 304 308 303 308 311 308 306 307 308 308 305 303 298 296 293 291 293 287 296 304 305 302 304 304
303 301 301 302 303 303 304 305 306 306 306 291 293 303 300 295 300 301 303 301 301 301 300 305 310 311 309 307 301 297 298 300 303 305 303 302 298 293 291 289 295 301 303 303 299 299 306
303 301 301 301 302 303 304 305 305 306 306 292 292 299 303 297 297 305 302 300 297 297 301 304 307 309 306 302 299 292 292 296 295 299 303 302 300 296 292 289 288 298 305 309 304 293 304
302 301 301 301 301 302 303 304 305 305 306 295 291 298 304 300 303 303 298 298 301 299 296 299 304 304 302 297 295 293 293 298 294 295 295 295 294 293 289 289 294 302 307 307 293 295 305
301 301 300 300 301 301 302 303 305 305 305 296 293 297 303 300 302 306 305 302 302 300 296 299 301 302 297 294 293 294 292 294 292 295 295 294 292 291 290 288 290 306 306 298 301 301 306
301 300 299 300 300 301 302 302 304 305 305 299 294 299 301 299 298 302 304 304 304 307 302 301 300 302 303 296 294 293 292 291 290 288 296 292 296 294 295 295 301 304 301 304 304 306 307
Wind_Speed
9 7 6 4 4 4 4 5 6 8 6 7 8 7 8 8 8 9 9 10 10 10 11 11 11 11 4 5 9 2 8 9 7 5 4 4 3 3 1 3 1 4 4 5 3 6 5
12 12 11 9 7 6 5 5 6 7 6 7 7 6 8 8 9 9 10 11 10 10 11 9 9 10 2 4 3 3 8 6 4 4 3 5 5 5 2 3 2 3 5 1 6 4 4
15 13 13 12 11 10 9 8 7 7 6 7 7 7 9 8 9 9 11 11 10 11 11 9 7 2 1 13 5 4 6 6 5 5 4 5 5 2 1 4 2 2 2 8 6 3 3
14 14 14 13 12 12 11 10 9 9 7 8 7 8 9 9 9 10 12 11 11 10 11 8 4 1 8 5 3 4 5 5 6 6 3 5 4 4 2 3 7 6 7 4 4 3 3
14 14 14 14 13 13 12 12 12 11 10 8 7 8 9 9 9 10 12 11 11 11 6 1 1 2 10 3 2 0 4 4 5 4 2 4 3 4 6 4 6 8 3 4 4 4 4
13 14 14 13 13 13 13 13 13 12 11 9 8 8 7 8 9 10 12 8 3 6 2 3 3 3 5 4 5 3 2 4 3 3 4 8 6 4 5 5 3 1 4 3 3 6 7
13 14 14 15 15 14 13 13 13 12 12 11 10 8 7 7 7 7 7 3 5 3 0 6 4 4 5 7 2 2 0 1 4 10 5 5 7 1 5 4 4 6 3 2 3 4 6
13 14 15 15 15 15 14 14 14 13 13 13 11 9 7 4 3 2 1 2 2 4 6 6 4 7 5 2 4 6 1 4 5 3 2 6 1 3 3 6 7 5 2 3 5 5 7
12 13 14 15 15 14 14 15 15 14 14 13 11 9 6 2 3 1 1 4 3 4 3 7 5 4 2 6 3 6 4 1 2 1 0 4 4 1 6 5 6 1 4 1 4 4 6
13 13 14 14 14 15 16 17 16 16 15 14 12 9 4 2 0 1 3 1 2 4 6 5 3 5 3 4 3 4 3 5 2 2 6 2 4 6 5 3 4 1 2 2 3 4 2
12 12 14 14 15 16 17 17 17 17 16 14 11 9 5 4 4 1 0 4 4 5 4 4 4 0 2 6 2 1 2 5 4 2 5 1 4 5 6 1 3 2 3 3 3 5 4
12 13 14 15 16 17 18 18 18 18 17 16 11 9 3 3 1 6 4 3 5 9 3 6 2 3 3 2 2 0 3 6 2 5 5 2 1 2 4 2 3 2 4 7 5 4 5
12 13 15 15 16 17 18 19 20 20 20 19 14 6 6 1 3 0 1 4 7 5 5 6 1 2 2 3 2 2 1 3 3 5 5 7 5 4 3 4 6 7 8 6 7 8 4
12 14 14 15 16 17 18 20 21 22 22 23 19 7 6 4 2 4 4 8 2 2 5 5 3 1 5 4 2 2 3 1 1 6 4 5 5 1 2 2 5 4 6 7 1 1 5
12 13 14 16 17 18 19 21 22 23 24 24 8 2 0 4 2 2 8 5 5 4 3 8 6 3 1 2 2 2 4 3 6 6 7 5 3 3 4 2 4 2 5 4 7 3 2
11 13 15 16 17 19 20 21 23 25 25 19 3 3 4 6 2 6 8 3 3 4 5 4 2 0 3 1 2 5 4 2 3 4 1 7 3 2 2 1 6 3 6 4 4 1 3
9 12 14 15 16 17 20 22 23 26 27 14 4 4 4 4 4 8 5 5 5 5 3 3 3 4 3 2 1 2 8 1 1 2 5 4 5 5 1 4 1 3 2 7 5 4 5
8 10 12 14 15 16 18 20 22 24 30 11 2 3 3 3 7 1 4 5 2 3 2 6 1 2 1 1 2 2 4 1 5 2 4 1 6 3 1 2 3 2 3 5 7 5 1
6 9 12 13 15 15 17 19 20 20 18 2 3 3 4 5 5 0 2 1 2 2 4 4 3 1 3 3 2 0 2 0 5 4 6 5 3 4 8 8 5 5 3 5 5 3 4
4 8 10 13 15 15 16 19 20 20 17 3 3 3 5 6 1 7 3 1 4 3 4 4 2 3 4 6 5 2 2 5 3 4 6 8 4 7 8 6 3 2 1 2 5 3 3
3 6 9 12 14 16 17 18 20 21 18 3 4 1 2 0 3 3 3 2 2 4 2 3 4 1 3 2 2 2 2 4 5 3 4 5 4 3 2 1 2 1 2 1 4 5 5
4 5 7 10 12 14 16 16 19 22 17 5 2 2 4 1 3 3 2 2 2 3 3 3 3 3 3 5 6 6 4 1 2 5 4 4 2 2 1 1 2 1 2 4 3 0 5
6 4 6 8 10 12 14 15 17 21 10 3 2 1 3 3 2 3 3 2 3 1 3 3 2 4 4 4 3 1 3 5 3 4 2 3 6 4 3 2 2 4 3 3 3 4 3
7 4 4 7 9 10 12 13 15 15 11 1 1 1 4 3 1 1 1 1 2 2 3 4 3 3 1 6 6 5 9 9 9 8 3 5 5 3 2 3 1 6 2 4 4 4 3
6 2 2 5 7 9 10 11 12 12 12 2 1 2 2 0 1 2 3 2 5 5 2 2 4 2 2 4 5 5 6 5 6 5 6 3 5 4 4 3 5 4 4 5 4 6 2
6 3 3 4 6 7 8 9 10 11 11 3 2 1 2 4 4 3 2 2 1 3 5 3 4 5 5 4 4 4 4 4 2 3 4 6 6 6 3 4 7 9 2 3 4 6 3
3 5 7 4 5 6 6 8 9 10 10 3 3 2 2 2 4 1 2 3 3 2 1 4 6 6 4 3 3 3 4 4 3 4 2 3 3 4 2 4 7 7 3 4 5 9 2
8 10 9 7 5 5 6 7 8 8 10 4 3 2 2 2 5 1 2 2 1 2 3 3 3 4 4 4 3 3 3 4 3 2 3 5 5 3 3 1 7 5 4 6 7 2 2
11 11 10 9 7 5 5 6 6 7 8 4 1 2 1 3 5 2 5 5 4 3 5 2 3 2 3 5 0 3 2 2 4 3 1 1 7 5 9 8 4 5 2 1 3 3 2
Wind_Direction
70 73 68 48 33 341 336 310 286 272 272 279 279 294 298 296 293 291 291 290 293 297 297 299 316 326 346 359 255 284 85 115 117 129 161 160 128 102 32 222 277 212 259 167 194 182 106
61 58 58 51 45 22 8 339 306 294 297 291 290 294 288 286 285 284 285 284 288 291 289 299 313 317 359 302 229 165 122 122 133 146 162 180 164 190 185 221 193 230 283 90 107 197 129
56 54 55 49 42 34 22 4 338 330 330 310 303 295 284 281 278 285 281 282 285 286 289 304 297 298 125 236 116 152 163 178 179 175 192 211 167 108 116 317 219 259 348 21 18 158 125
49 42 41 39 31 28 21 8 1 354 342 324 310 295 282 277 281 279 278 280 283 289 294 290 276 192 253 239 184 175 172 248 217 221 221 143 164 108 86 323 13 46 53 60 314 34 214
40 39 34 33 24 16 11 4 1 0 354 338 314 292 279 281 281 277 280 285 288 286 274 203 133 119 275 301 297 329 175 213 166 117 173 130 85 70 32 47 9 13 52 18 332 24 141
36 36 33 26 21 11 4 359 356 355 357 350 329 302 293 282 281 295 296 268 316 319 184 182 257 8 284 311 297 315 193 274 46 91 52 46 45 63 28 60 187 227 66 19 52 345 45
31 31 29 21 17 12 360 359 353 351 351 350 342 329 307 294 307 324 340 28 18 344 69 207 207 228 254 277 305 356 243 111 41 52 43 7 52 334 227 198 117 96 82 90 309 359 78
30 28 25 20 11 9 358 354 351 350 346 345 344 340 328 322 300 280 83 92 204 171 322 252 257 279 278 319 346 323 83 73 63 47 13 15 287 277 134 104 97 66 41 341 298 11 88
28 23 21 15 3 3 357 354 349 347 344 339 339 337 338 306 236 5 148 228 112 78 108 299 207 221 203 127 214 268 117 95 102 331 348 155 240 112 113 89 89 74 136 226 223 19 45
20 18 17 8 359 359 359 355 347 346 343 338 337 333 323 258 51 193 255 172 54 152 68 287 252 280 133 188 287 221 190 130 47 221 141 205 314 121 104 86 105 14 261 267 267 71 185
18 15 13 8 4 358 355 352 345 343 342 333 330 322 295 228 159 171 137 354 114 58 92 275 251 348 51 141 232 1 197 55 185 125 94 298 54 68 75 317 157 200 46 32 60 92 85
13 13 13 10 6 358 355 348 344 344 342 332 331 313 172 143 43 241 348 45 57 44 255 323 265 174 112 25 303 295 68 49 97 77 31 56 335 66 136 77 51 121 82 42 50 67 42
14 14 12 9 5 360 355 347 346 343 343 337 331 286 179 243 203 28 84 54 43 114 336 330 344 117 122 196 238 168 100 36 137 79 20 7 351 322 126 74 19 52 52 1 10 14 231
12 13 9 9 5 1 355 350 347 344 344 340 334 127 225 239 329 14 64 51 84 276 262 303 354 68 159 181 247 87 78 50 338 86 96 122 339 27 2 161 157 55 116 140 210 252 274
13 12 9 8 5 1 358 352 348 346 345 340 327 328 296 287 250 78 73 68 215 218 301 323 334 101 53 55 170 115 157 197 220 178 128 134 262 320 43 90 127 149 57 161 104 13 41
13 11 10 7 5 2 358 354 351 347 344 342 54 8 307 315 71 61 74 203 245 220 330 350 334 215 148 108 164 143 173 225 242 191 113 198 99 64 312 68 39 103 147 57 16 138 282
14 14 12 8 4 3 359 356 354 350 342 333 43 51 282 343 57 50 130 220 266 265 5 336 315 357 76 78 90 180 202 305 24 101 79 123 103 284 22 21 197 19 31 51 111 121 169
15 17 12 10 6 4 0 358 357 356 342 37 42 56 298 41 58 20 147 195 258 302 295 263 222 249 106 111 49 143 188 299 338 179 100 93 123 109 208 314 266 101 94 110 108 275 123
17 20 12 8 7 5 1 358 359 0 10 1 51 275 320 84 119 328 262 270 259 303 277 323 283 286 52 56 88 193 126 289 351 85 151 180 36 57 354 354 356 64 56 105 105 84 208
29 20 16 7 5 6 4 356 357 356 359 63 63 24 332 47 45 128 113 354 293 276 256 261 274 8 65 41 9 76 51 1 21 78 69 86 102 145 185 202 177 112 12 102 124 123 207
63 24 17 9 5 4 5 358 356 353 351 67 34 292 188 321 355 93 132 146 249 298 268 346 27 60 150 79 37 20 46 16 30 34 47 94 110 135 161 127 129 199 319 12 209 216 172
111 40 17 10 5 4 4 1 358 353 345 71 85 60 359 28 326 114 87 145 193 271 217 314 118 240 154 161 185 196 136 210 213 21 62 6 142 113 124 55 9 269 323 290 227 289 262
120 65 20 9 4 1 4 6 6 3 2 68 323 317 99 316 26 92 203 228 226 251 258 219 216 130 167 202 145 97 139 96 76 135 101 76 128 94 240 334 34 350 227 244 270 226 212
127 91 20 4 356 357 2 6 11 17 39 119 252 91 77 282 64 160 350 273 277 280 266 309 123 131 163 99 116 67 60 75 61 32 69 119 94 76 167 21 198 242 246 231 237 269 250
133 108 354 346 344 348 357 3 7 13 17 62 298 88 104 212 242 315 337 310 321 319 264 299 0 325 321 56 64 45 355 22 28 40 25 70 111 93 136 187 285 292 208 182 174 276 193
159 165 294 314 324 337 351 358 2 6 8 78 270 211 101 120 252 306 276 6 305 334 346 355 341 318 53 76 69 129 188 199 271 356 101 68 68 113 138 167 210 239 184 139 99 298 265
188 239 251 274 307 321 340 348 355 4 8 65 283 248 99 143 266 153 200 182 124 86 212 308 337 9 31 79 99 149 210 177 171 182 208 36 27 156 132 224 290 244 177 144 89 239 208
223 230 241 251 282 295 320 336 346 5 5 49 271 247 127 170 274 267 322 147 64 90 146 277 45 347 39 72 121 202 144 210 108 199 185 181 153 206 98 140 273 164 82 165 214 218 188
215 222 229 239 250 269 295 316 337 358 3 52 319 342 319 153 243 294 270 261 239 196 143 1 167 152 176 89 108 110 126 92 156 224 72 234 182 189 171 216 259 277 255 268 155 144 181